Aeroporto :
LOGIN :

Iscrizione | Disclaimer

   EN    FR    IT 

 










Sommario :    VFR   VFR Marginale   IFR   IFR Intensivo   IFR Molto Intensivo
Visibilità : 
Base nubi : 
>= 8 km
>= 3000ft
5 / 8 km
1000 / 3000 ft
1500m / 5 km
500 / 1000 ft
800 / 1500m
200 / 500 ft
< 800m
< 200 ft
Simboli :   Temporali  Nebbia  Neve Forte  Precipitazioni Forti  Vento > 20 kt
SIGMETs :   Varie  Temporali  Ghiacco  Turbolenza  Onda orograficha  Ceneri Vulcaniche







- Altitudine del aeroporto : 821 ft
- Codice IATA : LYS
- Carte del aeroporto


LFLL - Lyon St Exupéry / Satolas

ULTIMO METAR :
  • 221900Z 09004KT CAVOK 21/03 Q1022 NOSIG

METARs OBSOLETI :
  • 221830Z VRB03KT CAVOK 21/04 Q1022 NOSIG
  • 221800Z 11001KT CAVOK 22/04 Q1022 NOSIG
  • 221730Z VRB02KT CAVOK 22/03 Q1021 NOSIG
  • 221700Z VRB02KT CAVOK 23/03 Q1021 NOSIG
  • 221630Z VRB02KT CAVOK 23/02 Q1022 NOSIG

TAF TAF LFLL
Valido dal 22 a 18 ore il 24 a 00 ore UTC


221700Z 2218/2324 15005KT CAVOK
PROB40
TEMPO 2316/2320 32010KT SHRA SCT050TCU
TEMPO 2320/2324 34020G35KT 4000 RA BKN013 OVC030
Nessun NOTAM noto per questo aeroporto.



MetMap, La meteo Aeronautica in un colpo d'occhio ! - Copyright ORBIFLY Dicembre 2007 - Disclaimer

ORBIFLY MET'MAP TEAM :

Programmazione e sviluppo : Alexandra Zaïnal
Concezione e sviluppo : Baudouin d'Aumeries
Co-Programmazione e sviluppo : Marc-Olivier Méhu
Supporto tecnico e logistico : Manuel Goepfert
Aiuto per la traduzione : Arnaldo La Scala

Contatto : metmap@orbifly.com




FONTI E CREDITI :

   NOAA